x

St. Joseph, Mi (sjom4) Weather Station

6:50pm - Sun 2nd Aug 2015 All times are CDT. -5 hours from GMT.

  • Wind
    21mph, 29mph gusts
  • Air Temp 82°f
  • Sea Pressure 1004.1mb
  • St. Joseph, Mi
  • St. Joseph, Mi

More Historic Weather Station data

Upgrade to MSW Pro to gain access to the past 30 days of data for over 8000 Wavebouys and Weather Stations around the globe.

Join Pro

Comparision Forecast

View Surf forecast
   
Sun 08/02 6:50pm 21 29 mph 1004.1mb 82f
6:40pm 18 25 mph 1004.7mb 81f
6:30pm 21 25 mph 1005.1mb 82f
6:20pm 21 29 mph 1005.4mb 83f
6:10pm 21 26 mph 1005.4mb 83f
6:00pm 20 26 mph 1005.4mb 83f
5:54pm 21 25 mph 1005.8mb 83f
5:50pm 20 24 mph 1005.4mb 83f
5:40pm 17 24 mph 1005.4mb 83f
5:30pm 16 21 mph 1005.4mb 82f
5:20pm 15 21 mph 1005.8mb 81f
5:10pm 16 20 mph 1005.8mb 80f
5:00pm 18 22 mph 1006.1mb 81f
4:54pm 16 28 mph 1005.8mb 79f
4:50pm 13 18 mph 1006.1mb 79f
4:40pm 17 24 mph 1006.4mb 80f
4:30pm 22 28 mph 1006.4mb 80f
4:20pm 16 26 mph 1006.8mb 80f
4:10pm 18 24 mph 1007.1mb 80f
4:00pm 20 24 mph 1007.1mb 80f
3:54pm 21 24 mph 1007.1mb 80f
3:50pm 21 24 mph 1007.5mb 80f
3:40pm 20 23 mph 1007.5mb 81f
3:30pm 18 22 mph 1007.1mb 82f
3:20pm 18 24 mph 1007.1mb 83f
3:10pm 18 24 mph 1007.5mb 83f
3:00pm 17 23 mph 1008.1mb 82f
2:53pm 17 23 mph 1007.5mb 82f
2:50pm 17 23 mph 1008.1mb 82f
2:40pm 18 22 mph 1008.5mb 82f
2:30pm 17 21 mph 1008.8mb 82f
2:20pm 16 21 mph 1008.8mb 82f
2:10pm 17 21 mph 1008.8mb 82f
2:00pm 16 22 mph 1008.5mb 82f
1:53pm 16 22 mph 1009.1mb 81f
1:50pm 16 21 mph 1008.5mb 81f
1:40pm 16 20 mph 1008.8mb 80f
1:30pm 15 18 mph 1008.8mb 80f
1:20pm 16 20 mph 1009.1mb 80f
1:10pm 15 18 mph 1009.5mb 80f
1:00pm 15 21 mph 1009.5mb 80f
12:52pm 15 20 mph 1010.2mb 80f
12:50pm 14 18 mph 1009.5mb 80f
12:40pm 14 17 mph 1009.5mb 79f
12:30pm 14 17 mph 1009.5mb 79f
12:20pm 14 17 mph 1010.2mb 79f
12:10pm 14 18 mph 1010.5mb 79f
12:00pm 14 17 mph 1010.8mb 78f
11:52am 14 21 mph 1010.5mb 78f
11:50am 14 18 mph 1010.8mb 78f
11:40am 15 18 mph 1010.5mb 78f
11:30am 16 18 mph 1010.2mb 78f
11:20am 15 20 mph 1010.2mb 78f
11:10am 15 18 mph 1010.5mb 78f
11:00am 16 22 mph 1011.2mb 78f
10:52am 17 24 mph 1010.8mb 78f
10:50am 18 22 mph 1011.5mb 78f
10:40am 18 23 mph 1011.2mb 78f
10:30am 17 23 mph 1011.2mb 78f
10:20am 17 23 mph 1010.5mb 78f
10:10am 18 24 mph 1010.5mb 78f
10:00am 18 24 mph 1011.5mb 78f
9:51am 17 24 mph 1011.9mb 78f
9:50am 17 24 mph 1011.5mb 78f
9:40am 18 23 mph 1011.2mb 77f
9:30am 17 23 mph 1010.8mb 77f
9:20am 16 22 mph 1011.9mb 76f
9:10am 17 22 mph 1011.5mb 76f
9:00am 16 23 mph 1011.2mb 75f
8:51am 18 26 mph 1011.9mb 75f
8:50am 18 22 mph 1012.2mb 75f
8:40am 17 23 mph 1011.9mb 74f
8:30am 21 26 mph 1011.5mb 74f
8:20am 18 24 mph 1012.2mb 74f
8:10am 17 22 mph 1011.5mb 74f
8:00am 17 23 mph 1011.9mb 74f
7:50am 16 23 mph 1012.2mb 74f
7:40am 15 23 mph 1011.5mb 74f
7:30am 16 21 mph 1012.2mb 74f
7:20am 15 21 mph 1012.2mb 74f
7:10am 17 21 mph 1011.5mb 74f
7:00am 14 18 mph 1012.2mb 74f
6:50am 14 22 mph 1011.5mb 74f
6:40am 13 20 mph 1012.2mb 74f
6:30am 15 22 mph 1012.5mb 74f
6:20am 16 22 mph 1011.9mb 74f
6:10am 14 18 mph 1012.5mb 74f
6:00am 13 20 mph 1011.9mb 74f
5:50am 15 22 mph 1012.2mb 74f
5:40am 17 22 mph 1012.5mb 74f
5:30am 17 21 mph 1011.5mb 74f
5:20am 17 18 mph 1012.2mb 74f
5:10am 16 21 mph 1012.2mb 74f
5:00am 16 21 mph 1011.9mb 74f
4:50am 18 22 mph 1012.5mb 74f
4:49am 20 22 mph 1011.9mb 74f
4:40am 15 21 mph 1011.9mb 74f
4:30am 15 20 mph 1012.2mb 74f
4:20am 15 18 mph 1012.5mb 74f
4:10am 15 18 mph 1011.9mb 74f
4:00am 13 18 mph 1012.5mb 74f
3:50am 13 18 mph 1012.5mb 74f
3:49am 16 20 mph 1012.5mb 74f
3:40am 15 20 mph 1011.9mb 74f
3:30am 16 20 mph 1012.9mb 74f
3:20am 15 17 mph 1012.5mb 74f
3:10am 14 17 mph 1012.2mb 75f
3:00am 15 18 mph 1012.9mb 75f
2:50am 14 20 mph 1012.2mb 75f
2:48am 15 20 mph 1012.5mb 75f
2:40am 15 18 mph 1012.2mb 75f
2:30am 15 20 mph 1012.5mb 75f
2:20am 15 18 mph 1012.2mb 75f
2:10am 15 20 mph 1012.2mb 75f
2:00am 15 18 mph 1012.5mb 75f
1:50am 15 18 mph 1012.2mb 75f
1:48am 14 18 mph 1012.2mb 75f
1:40am 15 17 mph 1012.2mb 75f
1:30am 15 17 mph 1012.5mb 75f
1:20am 14 17 mph 1011.9mb 75f
1:10am 15 17 mph 1012.2mb 75f
1:00am 14 18 mph 1012.9mb 75f
12:50am 15 18 mph 1012.2mb 75f
12:48am 15 18 mph 1012.5mb 75f
12:40am 15 17 mph 1012.2mb 75f
12:30am 14 16 mph 1012.9mb 75f
12:20am 13 15 mph 1012.9mb 75f
12:10am 11 14 mph 1012.2mb 75f
12:00am 11 13 mph 1012.9mb 75f
Sat 08/01 11:50pm 10 13 mph 1012.9mb 75f
11:47pm 9 16 mph 1012.5mb 75f
11:40pm 10 16 mph 1012.2mb 76f
11:30pm 11 13 mph 1012.9mb 76f
11:20pm 10 13 mph 1013.2mb 76f
11:10pm 10 11 mph 1012.5mb 76f
11:00pm 8 11 mph 1012.5mb 76f
10:50pm 8 10 mph 1013.2mb 76f
10:47pm 6 8 mph 1013.2mb 76f
10:40pm 7 8 mph 1012.9mb 76f
10:30pm 5 7 mph 1012.5mb 76f
10:20pm 6 8 mph 1012.9mb 76f
10:10pm 5 7 mph 1013.2mb 75f
10:00pm 2 3 mph 1013.2mb 75f
9:50pm 1 2 mph 1012.5mb 75f
9:46pm  -  5 mph 1013.2mb 75f
9:40pm  -  2 mph 1012.9mb 76f
9:30pm  -  2 mph 1013.2mb 76f
9:20pm  -  3 mph 1013.2mb 76f
9:10pm 2 3 mph 1012.9mb 76f
9:00pm 3 5 mph 1012.5mb 76f
8:50pm 2 5 mph 1012.9mb 76f
8:46pm 1 5 mph 1013.2mb 76f
8:40pm 1 3 mph 1013.2mb 76f
8:30pm 2 3 mph 1013.2mb 76f
8:20pm 2 3 mph 1013.2mb 76f
8:10pm 2 3 mph 1013.2mb 76f
8:00pm 1 3 mph 1013.2mb 76f
7:50pm 2 3 mph 1013.2mb 76f
7:46pm  -  3 mph 1012.5mb 77f
7:40pm  -  2 mph 1012.9mb 77f
7:30pm 1 2 mph 1012.5mb 78f
7:20pm  -  2 mph 1012.5mb 81f
7:10pm 1 2 mph 1012.5mb 80f
7:00pm 2 3 mph 1013.2mb 81f
6:50pm 2 6 mph 1012.9mb 81f
6:45pm 3 6 mph 1012.5mb 82f
6:40pm 3 5 mph 1012.5mb 80f
6:30pm 3 5 mph 1013.2mb 80f
6:20pm 2 3 mph 1013.5mb 81f
6:10pm 2 3 mph 1012.9mb 81f
6:00pm 2 3 mph 1013.5mb 82f
5:50pm 2 3 mph 1013.5mb 80f
5:45pm 2 3 mph 1013.2mb 81f
5:40pm 2 3 mph 1013.5mb 83f
5:30pm 2 3 mph 1013.9mb 83f
5:20pm 2 3 mph 1013.5mb 84f
5:10pm 2 3 mph 1014.2mb 83f
5:00pm 2 3 mph 1013.9mb 83f
4:50pm 3
mph
1014.6mb 85f
4:44pm 3
mph
1014.2mb 86f
4:40pm 2 3 mph 1013.9mb 86f
4:30pm 2
mph
1014.6mb 87f
4:20pm 2
mph
1014.6mb 85f
4:10pm 1 2 mph 1013.9mb 87f
4:00pm 2
mph
1014.9mb 86f
3:50pm 2
mph
1014.6mb 85f
3:44pm 2 3 mph 1014.6mb 85f
3:40pm 2 3 mph 1014.2mb 85f
3:30pm 2 3 mph 1014.2mb 84f
3:20pm 1 2 mph 1014.2mb 83f
3:10pm 1 3 mph 1014.9mb 79f
3:00pm 2 3 mph 1015.2mb 79f
2:50pm 2 5 mph 1015.2mb 76f
2:43pm 3 8 mph 1015.2mb 78f
2:40pm 3 6 mph 1015.6mb 78f
2:30pm 5 8 mph 1015.6mb 78f
2:20pm 6 8 mph 1015.6mb 76f
2:10pm 7 8 mph 1015.9mb 78f
2:00pm 6 8 mph 1015.9mb 79f
1:50pm 6 9 mph 1015.9mb 77f
1:43pm 9 13 mph 1015.2mb 75f
1:40pm 8 13 mph 1015.9mb 75f
1:30pm 9 13 mph 1016.3mb 75f
1:20pm 10 13 mph 1016.3mb 75f
1:10pm 10 11 mph 1016.3mb 76f
1:00pm 10 11 mph 1016.3mb 77f
12:50pm 10 13 mph 1016.3mb 79f
12:43pm 9 14 mph 1016.3mb 79f
12:40pm 9 11 mph 1015.9mb 79f
12:30pm 10 14 mph 1015.9mb 78f
12:20pm 10 13 mph 1015.9mb 78f
12:10pm 10 13 mph 1015.6mb 78f
12:00pm 9 13 mph 1015.6mb 78f
11:50am 11 13 mph 1015.9mb 77f
11:42am 9 13 mph 1016.3mb 78f
11:40am 9 11 mph 1015.9mb 78f
11:30am 10 13 mph 1016.3mb 77f
11:20am 9 11 mph 1016.6mb 78f
11:10am 9 11 mph 1016.6mb 78f
11:00am 9 13 mph 1016.3mb 78f
10:50am 9 11 mph 1016.3mb 78f
10:42am 8 11 mph 1015.9mb 78f
10:40am 8 10 mph 1016.3mb 78f
10:30am 7 9 mph 1015.6mb 77f
10:20am 8 11 mph 1015.2mb 76f
10:10am 8 10 mph 1015.6mb 76f
10:00am 8 10 mph 1016.3mb 76f
9:50am 8 11 mph 1016.3mb 75f
9:41am 9 11 mph 1016.3mb 75f
9:40am 9 11 mph 1015.6mb 75f
9:30am 9 11 mph 1015.9mb 74f
9:20am 10 11 mph 1015.9mb 74f
9:10am 9 11 mph 1015.6mb 74f
9:00am 8 10 mph 1016.3mb 73f
8:50am 9 11 mph 1015.6mb 72f
8:41am 9 13 mph 1015.2mb 73f
8:40am 9 11 mph 1016.3mb 73f
8:30am 9 11 mph 1015.6mb 72f
8:20am 9 13 mph 1015.9mb 72f
8:10am 9 11 mph 1015.6mb 72f
8:00am 9 13 mph 1015.6mb 72f
7:50am 9 13 mph 1015.9mb 72f
7:41am 9 15 mph 1015.2mb 72f
7:40am 9 14 mph 1015.2mb 72f
7:30am 9 14 mph 1015.9mb 72f
7:20am 9 13 mph 1015.2mb 72f
7:10am 10 13 mph 1015.9mb 72f
7:00am 9 13 mph 1015.2mb 72f
6:50am 10 15 mph 1015.9mb 72f
6:40am 11 15 mph 1015.2mb 72f
6:30am 9 13 mph 1015.9mb 72f
6:20am 9 13 mph 1014.9mb 72f
6:10am 9 13 mph 1015.9mb 72f
6:00am 10 13 mph 1014.9mb 72f
5:50am 9 13 mph 1015.6mb 72f
5:40am 8 13 mph 1014.9mb 72f
5:30am 9 13 mph 1015.2mb 72f
5:20am 9 11 mph 1014.6mb 72f
5:10am 8 13 mph 1015.2mb 72f
5:00am 9 11 mph 1014.9mb 72f
4:50am 8 11 mph 1015.2mb 72f
4:40am 8 11 mph 1014.9mb 72f
4:39am 9 14 mph 1014.6mb 72f
4:30am 9 10 mph 1014.6mb 72f
4:20am 8 11 mph 1015.2mb 72f
4:10am 8 13 mph 1014.6mb 72f
4:00am 10 13 mph 1015.6mb 73f
3:50am 9 14 mph 1014.6mb 73f
3:40am 10 14 mph 1015.2mb 73f
3:39am 10 14 mph 1014.9mb 73f
3:30am 10 14 mph 1014.9mb 73f
3:20am 10 14 mph 1014.9mb 73f
3:10am 9 13 mph 1015.2mb 73f
3:00am 10 13 mph 1014.6mb 73f
2:50am 8 13 mph 1015.6mb 73f
2:40am 8 10 mph 1014.9mb 73f
2:39am 9 15 mph 1015.6mb 73f
2:30am 9 11 mph 1015.2mb 73f
2:20am 10 13 mph 1015.6mb 73f
2:10am 9 14 mph 1014.9mb 73f
2:00am 11 15 mph 1015.6mb 74f
1:50am 10 14 mph 1014.9mb 74f
1:40am 10 14 mph 1015.2mb 74f
1:38am 9 15 mph 1014.9mb 74f
1:30am 11 15 mph 1015.6mb 74f
1:20am 10 15 mph 1014.6mb 74f
1:10am 11 15 mph 1015.6mb 74f
1:00am 11 15 mph 1015.2mb 74f
12:50am 11 15 mph 1014.9mb 74f
12:40am 10 15 mph 1015.6mb 74f
12:38am 10 15 mph 1015.2mb 74f
12:30am 10 14 mph 1014.6mb 74f
12:20am 9 14 mph 1015.2mb 74f
12:10am 10 13 mph 1015.2mb 75f
12:00am 9 11 mph 1014.6mb 74f
Fri 07/31 11:50pm 9 11 mph 1015.2mb 74f
11:40pm 8 10 mph 1014.9mb 74f
11:37pm 9 11 mph 1015.2mb 74f
11:30pm 8 11 mph 1014.6mb 74f
11:20pm 7 9 mph 1015.6mb 74f
11:10pm 6 10 mph 1014.6mb 74f
11:00pm 7 9 mph 1015.2mb 74f
10:50pm 8 10 mph 1015.2mb 74f
10:40pm 6 9 mph 1014.6mb 74f
10:37pm 7 9 mph 1014.6mb 74f
10:30pm 6 7 mph 1015.2mb 74f
10:20pm 6 8 mph 1015.2mb 74f
10:10pm 7 8 mph 1014.6mb 74f
10:00pm 6 8 mph 1014.9mb 74f
9:50pm 7 8 mph 1014.9mb 74f
9:40pm 6 9 mph 1014.2mb 74f
9:37pm 7 9 mph 1014.2mb 74f
9:30pm 7
mph
1014.6mb 74f
9:20pm 7 8 mph 1014.9mb 74f
9:10pm 6 8 mph 1014.6mb 74f
9:00pm 6 8 mph 1013.9mb 74f
8:50pm 7 8 mph 1014.2mb 74f
8:40pm 6 7 mph 1014.6mb 74f
8:36pm 6 7 mph 1014.6mb 74f
8:30pm 6 7 mph 1014.6mb 74f
8:20pm 5 6 mph 1014.2mb 74f
8:10pm 5 6 mph 1013.9mb 74f
8:00pm 3 5 mph 1013.9mb 75f
7:50pm 3 5 mph 1013.5mb 76f
7:40pm 2 3 mph 1013.9mb 76f
7:36pm 3 6 mph 1013.9mb 76f
7:30pm 3 5 mph 1014.2mb 77f
7:20pm 2 5 mph 1014.2mb 77f
7:10pm 3 5 mph 1014.6mb 77f
7:00pm 2 5 mph 1014.2mb 78f
6:50pm 3 6 mph 1014.2mb 78f
6:40pm 5 6 mph 1013.5mb 77f
6:35pm 5 8 mph 1014.2mb 77f
6:00pm 6 7 mph 1014.6mb 77f
5:50pm 6 8 mph 1014.6mb 77f
5:40pm 6 8 mph 1014.2mb 77f
5:35pm 7 11 mph 1014.2mb 77f
5:30pm 7 8 mph 1013.9mb 77f
5:20pm 7 9 mph 1014.2mb 77f
5:10pm 8 10 mph 1014.6mb 77f
5:00pm 8 10 mph 1014.9mb 77f
4:50pm 9 11 mph 1014.9mb 77f
4:40pm 7 9 mph 1014.2mb 76f
4:35pm 6 13 mph 1014.2mb 76f
4:30pm 7 9 mph 1013.9mb 76f
4:20pm 8 10 mph 1013.9mb 77f
4:10pm 9 13 mph 1014.2mb 77f
4:00pm 8 11 mph 1014.9mb 76f
3:50pm 7 10 mph 1014.9mb 78f
3:40pm 8 10 mph 1014.6mb 80f
3:34pm 8 11 mph 1013.9mb 81f
3:30pm 8 10 mph 1014.2mb 81f
3:20pm 8 10 mph 1013.9mb 82f
3:10pm 8 11 mph 1014.2mb 81f
3:00pm 9 11 mph 1014.6mb 81f
2:50pm 9 11 mph 1014.9mb 81f
2:40pm 9 11 mph 1014.9mb 81f
2:34pm 9 13 mph 1014.9mb 80f
2:30pm 10 13 mph 1015.2mb 80f
2:20pm 10 13 mph 1014.9mb 80f
2:10pm 9 11 mph 1014.6mb 80f
2:00pm 9 11 mph 1014.6mb 80f
1:50pm 10 13 mph 1014.6mb 80f
1:40pm 10 14 mph 1014.6mb 79f
1:33pm 10 14 mph 1014.9mb 79f
1:30pm 10 14 mph 1014.9mb 79f
1:20pm 10 13 mph 1015.2mb 79f
1:10pm 10 14 mph 1015.2mb 79f
1:00pm 11 14 mph 1015.6mb 79f
12:50pm 10 14 mph 1015.6mb 79f
12:40pm 10 13 mph 1015.6mb 79f
12:33pm 10 14 mph 1015.9mb 79f
12:30pm 10 13 mph 1015.9mb 79f
12:20pm 10 14 mph 1015.9mb 79f
12:10pm 10 14 mph 1015.9mb 79f
12:00pm 10 14 mph 1015.9mb 78f
11:50am 10 14 mph 1015.9mb 79f
11:40am 10 14 mph 1016.3mb 78f
11:33am 11 16 mph 1016.3mb 78f
11:30am 11 13 mph 1016.6mb 78f
11:20am 11 14 mph 1016.6mb 78f
11:10am 8 11 mph 1016.6mb 78f
11:00am 10 15 mph 1015.9mb 78f
10:50am 13 16 mph 1015.6mb 78f
10:40am 14 17 mph 1015.9mb 78f
10:32am 15 18 mph 1016.6mb 77f
10:30am 16 18 mph 1016.3mb 77f
10:20am 15 17 mph 1016.3mb 77f
10:10am 15 17 mph 1015.9mb 76f
10:00am 15 18 mph 1015.6mb 76f
9:50am 14 17 mph 1016.3mb 75f
9:40am 15 18 mph 1016.3mb 76f
9:32am 13 17 mph 1015.9mb 75f
9:30am 13 16 mph 1015.6mb 75f
9:20am 15 17 mph 1016.3mb 75f
9:10am 13 15 mph 1016.9mb 74f
9:00am 13 15 mph 1015.9mb 74f
8:50am 13 15 mph 1016.9mb 74f
8:40am 11 14 mph 1016.9mb 74f
8:31am 13 15 mph 1016.9mb 73f
8:30am 13 14 mph 1016.3mb 73f
8:20am 11 15 mph 1017.3mb 73f
8:10am 11 15 mph 1016.3mb 73f
8:00am 11 14 mph 1016.9mb 73f
7:50am 8 9 mph 1016.3mb 73f
7:40am 7 8 mph 1015.9mb 73f
7:31am 7 13 mph 1015.6mb 73f
7:30am 7 8 mph 1016.6mb 73f
7:20am 7 10 mph 1015.9mb 73f
7:10am 8 10 mph 1016.9mb 73f
7:00am 8 11 mph 1015.9mb 73f
6:50am 9 13 mph 1016.9mb 73f
6:40am 9 13 mph 1016.3mb 73f
6:31am 9 11 mph 1016.3mb 73f
6:30am 9 11 mph 1016.6mb 73f
6:20am 9 11 mph 1016.3mb 73f
6:10am 9 11 mph 1016.3mb 73f
6:00am 9 11 mph 1016.6mb 73f
5:50am 8 11 mph 1015.9mb 73f
5:40am 8 11 mph 1016.9mb 73f
5:30am 8 13 mph 1016.9mb 73f
5:20am 7 10 mph 1016.9mb 73f
5:10am 8 10 mph 1016.3mb 73f
5:00am 8 13 mph 1016.6mb 73f
4:50am 9 13 mph 1016.6mb 73f
4:40am 8 13 mph 1016.3mb 74f
4:30am 9 13 mph 1016.6mb 73f
4:20am 9 13 mph 1016.3mb 73f
4:10am 9 13 mph 1016.9mb 73f
4:00am 9 11 mph 1016.3mb 73f
3:50am 9 13 mph 1016.9mb 73f
3:40am 9 11 mph 1016.6mb 73f
3:30am 9 13 mph 1016.3mb 73f
3:29am 9 13 mph 1016.6mb 73f
3:20am 9 11 mph 1016.9mb 73f
3:10am 8 11 mph 1016.3mb 73f
3:00am 8 11 mph 1016.9mb 74f
2:50am 9 11 mph 1016.6mb 74f
2:40am 7 13 mph 1016.6mb 74f
2:30am 9 13 mph 1016.9mb 74f
2:29am 9 13 mph 1016.6mb 74f
2:20am 9 13 mph 1016.3mb 74f
2:10am 8 10 mph 1016.9mb 74f
2:00am 8 11 mph 1016.6mb 74f
1:50am 8 11 mph 1016.3mb 74f
1:40am 8 11 mph 1016.9mb 74f
1:30am 8 10 mph 1016.3mb 74f
1:29am 8 10 mph 1016.6mb 74f
1:20am 8 10 mph 1016.6mb 74f
1:10am 8 10 mph 1016.6mb 74f
1:00am 8 10 mph 1015.9mb 74f
12:50am 8 10 mph 1016.6mb 74f
12:40am 8 10 mph 1016.3mb 74f
12:30am 8 10 mph 1016.3mb 74f
12:28am 8 10 mph 1016.6mb 74f
12:20am 8 10 mph 1016.6mb 74f
12:10am 7 9 mph 1015.9mb 74f
12:00am 7 9 mph 1016.3mb 74f
Thu 07/30 11:50pm 7 9 mph 1016.6mb 75f
11:40pm 7 9 mph 1015.9mb 75f
11:30pm 8 10 mph 1016.3mb 75f
11:28pm 8 11 mph 1016.6mb 75f
11:20pm 8 10 mph 1016.6mb 76f
11:10pm 9 11 mph 1016.3mb 76f
11:00pm 9 11 mph 1015.9mb 76f
10:50pm 9 11 mph 1016.6mb 76f
10:40pm 9 11 mph 1016.3mb 76f
10:30pm 9 11 mph 1015.6mb 76f
10:27pm 10 11 mph 1016.3mb 76f
10:20pm 9 10 mph 1016.3mb 76f
10:10pm 10 11 mph 1016.3mb 76f
10:00pm 10 11 mph 1015.6mb 76f
9:50pm 8 10 mph 1016.3mb 76f
9:40pm 9 11 mph 1016.6mb 76f
9:30pm 10 11 mph 1015.9mb 76f
9:27pm 9 13 mph 1016.3mb 76f
9:20pm 9 13 mph 1015.6mb 76f
9:10pm 10 13 mph 1015.9mb 76f
9:00pm 9 11 mph 1016.3mb 76f
8:50pm 9 11 mph 1015.9mb 76f
8:40pm 9 11 mph 1015.6mb 76f
8:30pm 9 11 mph 1015.6mb 76f
8:27pm 9 13 mph 1016.3mb 76f
8:20pm 9 13 mph 1016.3mb 76f
8:10pm 9 10 mph 1016.3mb 76f
8:00pm 9 11 mph 1015.9mb 76f
7:50pm 9 10 mph 1015.6mb 76f
7:40pm 9 10 mph 1015.6mb 77f
7:30pm 9 11 mph 1015.6mb 77f
7:26pm 9 11 mph 1015.9mb 77f
7:20pm 9 11 mph 1015.9mb 77f
7:10pm 9 11 mph 1015.9mb 77f
7:00pm 8 10 mph 1016.3mb 78f
6:50pm 9 11 mph 1015.9mb 77f
6:40pm 9 10 mph 1015.6mb 78f
6:30pm 10 14 mph 1015.6mb 77f
6:26pm 10 14 mph 1016.3mb 77f
6:20pm 10 13 mph 1015.6mb 78f
6:10pm 10 13 mph 1015.9mb 78f
6:00pm 10 13 mph 1016.3mb 77f
5:50pm 10 13 mph 1016.9mb 77f
5:40pm 10 11 mph 1016.9mb 77f
5:30pm 9 11 mph 1016.9mb 78f
5:25pm 10 14 mph 1016.9mb 77f
5:20pm 10 11 mph 1016.9mb 77f
5:10pm 10 11 mph 1016.6mb 77f
5:00pm 9 11 mph 1016.6mb 77f
4:50pm 10 11 mph 1016.6mb 77f
4:40pm 10 13 mph 1016.6mb 77f
4:30pm 10 14 mph 1016.9mb 77f
4:25pm 10 13 mph 1016.6mb 77f
4:20pm 10 13 mph 1017.3mb 77f
4:10pm 10 13 mph 1017.6mb 77f
4:00pm 10 11 mph 1017.6mb 77f
3:50pm 9 11 mph 1017.6mb 77f
3:40pm 9 11 mph 1017.6mb 77f
3:30pm 9 10 mph 1017.6mb 77f
3:24pm 8 13 mph 1017.3mb 77f
3:20pm 8 10 mph 1017.9mb 77f
3:10pm 10 13 mph 1017.9mb 77f
3:00pm 9 11 mph 1017.9mb 77f
2:50pm 9 11 mph 1017.9mb 77f
2:40pm 9 11 mph 1017.9mb 77f
2:30pm 10 13 mph 1017.9mb 77f
2:24pm 10 14 mph 1017.9mb 78f
2:20pm 10 13 mph 1018.3mb 78f
2:10pm 10 13 mph 1017.9mb 77f
2:00pm 10 14 mph 1018.3mb 77f
1:50pm 10 13 mph 1018.3mb 77f
1:40pm 11 13 mph 1018.6mb 77f
1:30pm 10 14 mph 1018.6mb 77f
1:24pm 11 14 mph 1017.9mb 77f
1:20pm 10 14 mph 1018.6mb 77f
1:10pm 10 13 mph 1018.6mb 77f
1:00pm 11 13 mph 1018.6mb 77f
12:50pm 11 13 mph 1018.6mb 77f
12:40pm 11 14 mph 1018.6mb 77f
12:30pm 11 13 mph 1018.3mb 77f
12:23pm 10 14 mph 1017.6mb 77f
12:20pm 10 14 mph 1018.3mb 77f
12:10pm 11 14 mph 1018.3mb 77f
12:00pm 11 14 mph 1017.9mb 77f
11:50am 10 14 mph 1017.9mb 77f
11:40am 10 13 mph 1017.9mb 77f
11:30am 10 14 mph 1017.9mb 77f
11:23am 11 14 mph 1017.9mb 76f
11:20am 11 14 mph 1017.9mb 76f
11:10am 10 13 mph 1018.3mb 76f
11:00am 10 14 mph 1018.6mb 76f
10:50am 10 13 mph 1018.6mb 76f
10:40am 10 11 mph 1018.6mb 76f
10:30am 10 13 mph 1018.3mb 76f
10:22am 9 13 mph 1018.3mb 76f
10:20am 9 11 mph 1017.9mb 76f
10:10am 9 13 mph 1017.6mb 75f
10:00am 10 13 mph 1017.9mb 75f
9:50am 10 11 mph 1018.3mb 75f
9:40am 9 10 mph 1018.3mb 75f
9:30am 8 11 mph 1017.6mb 74f
9:22am 9 14 mph 1017.9mb 74f
9:20am 9 13 mph 1018.3mb 74f
9:10am 9 13 mph 1017.6mb 73f
9:00am 10 14 mph 1017.9mb 73f
8:50am 9 13 mph 1017.9mb 73f
8:40am 9 14 mph 1017.6mb 72f
8:30am 10 14 mph 1017.9mb 72f
8:22am 9 16 mph 1017.3mb 72f
8:20am 9 13 mph 1017.3mb 72f
8:10am 9 14 mph 1017.6mb 72f
8:00am 9 14 mph 1016.9mb 72f
7:50am 11 15 mph 1017.6mb 72f
7:40am 11 16 mph 1017.3mb 72f
7:30am 13 16 mph 1017.6mb 72f
7:21am 11 15 mph 1016.9mb 72f
7:20am 11 14 mph 1016.9mb 72f
7:10am 10 14 mph 1017.3mb 72f
7:00am 11 14 mph 1017.3mb 72f
6:50am 10 13 mph 1016.9mb 72f
6:40am 11 14 mph 1017.3mb 72f
6:30am 10 15 mph 1016.6mb 72f
6:21am 11 15 mph 1016.9mb 72f
6:20am 11 15 mph 1017.3mb 72f
6:10am 11 15 mph 1016.6mb 72f
6:00am 10 15 mph 1017.3mb 72f
5:50am 10 14 mph 1016.3mb 72f
5:40am 11 15 mph 1016.9mb 72f
5:30am 11 15 mph 1016.3mb 72f
5:20am 11 15 mph 1016.6mb 72f
5:10am 11 15 mph 1015.9mb 72f
5:00am 11 14 mph 1016.6mb 72f
4:50am 10 13 mph 1015.9mb 72f
4:40am 11 14 mph 1016.6mb 73f
4:30am 10 14 mph 1016.3mb 73f
4:20am 11 15 mph 1016.6mb 73f
4:10am 9 13 mph 1016.6mb 72f
4:00am 9 13 mph 1015.9mb 73f
3:50am 10 13 mph 1016.6mb 73f
3:40am 10 13 mph 1015.6mb 73f
3:30am 9 13 mph 1016.6mb 73f
3:20am 9 15 mph 1016.3mb 73f
3:10am 10 15 mph 1016.3mb 73f
3:00am 10 13 mph 1016.3mb 73f
2:50am 11 14 mph 1015.6mb 73f
2:40am 10 13 mph 1016.6mb 73f
2:30am 8 11 mph 1015.6mb 73f
2:20am 9 13 mph 1016.3mb 73f
2:19am 9 15 mph 1015.9mb 74f
2:10am 10 13 mph 1016.6mb 74f
2:00am 10 14 mph 1015.6mb 74f
1:50am 10 14 mph 1016.3mb 74f
1:40am 10 14 mph 1016.3mb 74f
1:30am 10 15 mph 1015.9mb 74f
1:20am 11 15 mph 1016.6mb 74f
1:19am 11 15 mph 1016.3mb 74f
1:10am 10 15 mph 1015.9mb 74f
1:00am 10 15 mph 1016.3mb 75f
12:50am 11 15 mph 1016.6mb 75f